DW6561 Weather Reports


time (UTC)temp
F
wind
direction
speed
knots
gust
knots
rain 1hr
in
rain 24hr
in
rain mn
in
humidity
%
barometer
mb
20260505101510 63 163 0.9 5.2 0.00 0.00 0.00 60 1007.9
20260505100016 63 175 1.7 5.2 0.00 0.00 0.00 59 1007.7
20260505094524 63 189 0.0 0.9 0.00 0.00 0.00 52 1007.7
20260505093022 64 213 0.0 0.0 0.00 0.00 0.00 51 1007.7
20260505091529 64 213 0.0 0.0 0.00 0.00 0.00 48 1007.8
20260505090026 64 213 0.0 0.0 0.00 0.00 0.00 48 1007.7
20260505081509 65 187 0.0 3.5 0.00 0.00 0.00 47 1007.6
20260505074503 66 214 0.0 0.9 0.00 0.00 0.00 44 1007.5
20260505073007 66 217 0.0 2.6 0.00 0.00 0.00 43 1007.2
20260505070003 68 120 0.0 1.7 0.00 0.00 0.00 42 1007.0
20260505064512 68 170 0.0 1.7 0.00 0.00 0.00 39 1006.8
20260505063005 69 160 0.0 0.9 0.00 0.00 0.00 37 1006.8
20260505061510 70 141 0.0 0.0 0.00 0.00 0.00 36 1006.9
20260505054503 72 141 0.0 0.0 0.00 0.00 0.00 32 1006.4
20260505053007 73 141 0.0 0.0 0.00 0.00 0.00 31 1006.2
20260505051504 73 141 0.0 0.9 0.00 0.00 0.00 31 1006.2
20260505041504 74 172 0.0 2.6 0.00 0.00 0.00 31 1006.1
20260505040005 75 193 0.0 2.6 0.00 0.00 0.00 31 1005.9
20260505034509 76 338 0.0 0.9 0.00 0.00 0.00 30 1005.7
20260505033008 78 338 0.0 0.0 0.00 0.00 0.00 29 1005.6
20260505031518 79 342 0.0 0.0 0.00 0.00 0.00 26 1005.5
20260505024506 82 342 0.0 0.0 0.00 0.00 0.00 24 1005.5
20260505023004 83 342 0.0 0.9 0.00 0.00 0.00 22 1005.6
20260505021510 83 329 0.0 1.7 0.00 0.00 0.00 22 1005.5
20260505020019 84 321 0.0 1.7 0.00 0.00 0.00 22 1005.6
20260505013011 85 304 0.0 1.7 0.00 0.00 0.00 24 1005.9
20260505011511 86 46 0.0 1.7 0.00 0.00 0.00 22 1006.0
20260505004530 87 317 0.0 1.7 0.00 0.00 0.00 22 1006.2
20260505003024 87 308 0.0 2.6 0.00 0.00 0.00 21 1006.4
20260505001508 88 332 0.0 1.7 0.00 0.00 0.00 22 1006.5
20260505000027 89 81 0.0 1.7 0.00 0.00 0.00 22 1006.5
20260504234518 89 81 0.0 1.7 0.00 0.00 0.00 20 1006.5
20260504233012 89 296 0.9 2.6 0.00 0.00 0.00 21 1006.5
20260504231501 89 83 0.9 2.6 0.00 0.00 0.00 21 1006.6
20260504230006 89 5 0.0 2.6 0.00 0.00 0.00 21 1006.7
20260504224504 89 246 0.0 1.7 0.00 0.00 0.00 22 1006.8
20260504223003 88 69 0.0 2.6 0.00 0.00 0.00 22 1007.1
20260504221505 88 109 0.0 2.6 0.00 0.00 0.00 23 1007.2
20260504220003 88 315 0.9 2.6 0.00 0.00 0.00 22 1007.4
20260504214503 88 333 0.0 1.7 0.00 0.00 0.00 24 1007.6
20260504213009 87 309 0.0 1.7 0.00 0.00 0.00 24 1007.7
20260504211514 87 297 0.0 3.5 0.00 0.00 0.00 25 1007.9
20260504210008 86 333 0.9 3.5 0.00 0.00 0.00 24 1008.0
20260504204504 86 294 0.9 2.6 0.00 0.00 0.00 23 1008.2
20260504203008 86 325 0.0 2.6 0.00 0.00 0.00 28 1008.4
20260504201505 85 299 0.0 2.6 0.00 0.00 0.00 25 1008.5
20260504200007 85 319 0.0 1.7 0.00 0.00 0.00 27 1008.7
20260504194519 84 298 0.0 2.6 0.00 0.00 0.00 29 1008.7
20260504191504 83 290 0.0 1.7 0.00 0.00 0.00 29 1008.9
20260504190010 82 303 0.0 2.6 0.00 0.00 0.00 29 1009.0
20260504184511 81 352 0.0 2.6 0.00 0.00 0.00 30 1009.0
20260504183020 80 107 0.0 3.5 0.00 0.00 0.00 33 1009.1
20260504181515 79 340 0.0 3.5 0.00 0.00 0.00 32 1009.1
20260504180007 78 315 0.0 2.6 0.00 0.00 0.00 34 1009.1
20260504174516 78 311 0.0 2.6 0.00 0.00 0.00 33 1009.3
20260504173022 77 331 0.0 2.6 0.00 0.00 0.00 35 1009.3
20260504171503 76 298 0.0 1.7 0.00 0.00 0.00 37 1009.3